Wind_Speed
30 30 30 31 31 32 32 32 32 32 32 32 32 32 32 32 32 32 32 32 32 32 32 32 32 32 33 33 34 35 37 38 38 39 39 39 39 40 40 40 40 39 39 39 38 37 36 36 35 34 34 33 33 34 34 34 34 34 33 33 33 32 33 33 33 33 33 32 31
30 30 31 31 31 31 32 32 32 33 33 33 33 33 33 33 33 33 32 32 32 32 31 31 31 31 31 32 33 34 35 37 38 39 39 39 40 40 40 40 40 40 40 40 39 37 36 36 35 34 33 33 32 32 33 34 34 34 33 34 33 32 31 32 33 33 33 32 31
30 30 30 31 31 31 32 32 33 33 33 33 33 33 33 33 33 33 32 32 32 31 30 30 30 30 30 31 32 33 34 36 37 38 39 40 40 40 40 40 41 41 40 40 40 38 37 36 35 34 33 33 32 32 32 32 33 33 33 34 33 31 30 31 31 32 32 31 31
29 30 30 31 32 32 33 33 33 33 33 33 33 32 32 33 33 33 32 31 30 30 30 30 30 30 30 30 31 32 33 35 36 37 39 39 40 40 40 40 40 40 40 40 40 39 38 37 35 34 33 32 33 33 32 31 32 32 32 33 32 31 30 30 30 30 30 30 30
29 30 30 31 32 33 33 33 33 33 32 32 31 31 31 32 31 31 31 30 30 30 30 30 30 30 30 30 31 32 33 34 35 36 37 38 39 39 39 40 40 40 40 40 40 40 39 37 35 34 33 33 33 33 33 32 31 31 31 31 31 30 30 29 29 29 29 29 29
29 29 30 31 32 32 32 32 32 32 31 31 30 30 31 31 30 30 30 30 30 30 29 29 29 29 30 30 31 31 32 33 34 35 36 37 38 38 39 39 40 40 39 39 39 40 39 37 35 34 34 33 33 33 33 32 31 31 31 30 30 30 30 29 29 28 29 29 29
27 28 29 29 30 31 31 32 32 31 30 30 30 30 30 30 29 30 30 30 30 29 29 29 29 29 29 29 30 31 32 33 34 35 36 37 37 38 38 39 40 39 39 39 39 39 39 38 36 34 33 31 31 32 32 32 31 31 31 30 30 30 29 30 29 28 28 29 30
26 27 27 28 29 29 30 30 30 30 29 29 30 30 30 30 29 29 30 29 29 29 29 29 29 29 30 30 30 31 32 33 33 34 35 36 37 37 38 39 39 40 39 39 38 38 38 38 36 35 34 32 31 31 31 32 32 32 32 32 30 29 29 30 30 29 29 30 30
25 26 27 27 27 28 28 28 29 29 29 30 30 30 30 29 29 29 29 29 29 29 29 29 30 30 30 30 31 32 32 33 33 34 35 36 36 37 38 38 39 39 39 39 38 38 38 37 36 36 35 33 32 31 32 32 33 34 33 32 31 30 29 30 30 30 29 30 31
25 26 26 27 27 27 27 27 28 28 29 30 30 30 30 29 29 29 29 29 29 29 29 30 30 30 30 31 32 32 32 33 34 34 35 36 37 37 38 38 39 39 39 39 38 38 38 37 36 36 36 35 33 32 32 33 34 35 34 33 32 31 30 30 30 30 30 30 31
24 25 26 26 26 26 26 27 27 28 29 30 30 31 30 30 30 30 30 30 29 30 30 30 30 30 31 32 32 33 33 33 34 34 35 36 37 38 38 39 39 40 39 39 38 38 37 37 37 37 37 36 34 33 33 33 34 35 35 34 33 32 32 31 31 31 30 30 30
22 23 24 25 25 25 26 26 27 28 29 30 30 31 31 31 32 31 31 30 30 31 31 31 31 31 32 32 33 33 33 34 34 35 35 36 37 38 39 39 40 40 40 39 39 38 38 38 38 38 38 37 35 34 33 34 34 36 36 36 34 34 33 33 32 32 31 30 30
21 22 23 23 24 24 25 26 27 28 29 30 31 31 31 32 31 31 31 31 32 32 32 31 31 31 32 33 33 33 33 34 34 35 35 36 37 38 38 39 40 40 40 40 39 38 38 39 39 39 39 38 36 35 34 34 35 36 36 36 35 34 34 34 33 32 31 31 30
20 21 21 22 23 24 25 26 27 28 29 30 31 31 31 31 31 30 30 31 32 33 32 31 31 32 33 33 34 34 34 34 34 35 35 36 36 37 38 39 39 40 40 40 40 40 40 40 40 40 40 39 38 37 35 35 36 36 37 36 36 35 34 34 33 33 32 31 31
20 21 21 21 22 23 24 25 27 28 29 30 31 31 31 31 30 30 30 31 32 32 32 32 32 32 33 33 34 34 34 34 34 34 35 36 36 37 37 38 39 39 40 40 40 41 41 41 41 40 40 40 40 38 37 36 36 37 37 37 37 36 35 34 34 34 34 34 33
21 21 21 21 22 23 24 25 26 27 28 29 30 31 31 31 31 30 30 31 31 32 32 32 32 33 33 33 33 34 34 34 34 35 35 36 36 37 37 38 39 39 40 40 41 41 42 42 41 41 40 40 40 39 38 37 37 37 37 38 38 37 36 36 35 35 36 36 36
22 22 22 22 22 23 24 25 26 27 28 29 30 30 30 30 30 30 30 31 31 31 32 32 33 33 33 33 33 33 33 34 34 35 36 37 37 37 38 38 39 39 40 40 41 41 42 42 41 41 41 40 40 40 39 38 38 38 38 39 39 39 38 38 38 38 39 39 39
23 23 23 23 23 24 25 26 27 28 29 29 30 30 30 31 31 30 31 31 31 31 32 33 33 33 33 33 33 33 33 34 35 36 36 37 38 38 38 39 39 39 40 41 42 42 42 42 42 41 40 40 40 40 40 39 39 39 39 40 40 41 41 41 41 41 41 40 40
24 24 24 24 24 25 25 26 27 29 30 30 30 30 31 31 31 31 31 32 32 32 32 33 33 33 34 34 34 34 34 35 36 36 37 37 38 38 39 39 39 39 40 41 42 42 43 42 42 42 41 40 39 40 40 40 40 40 40 40 41 42 42 42 42 42 42 42 41
25 25 25 25 25 25 26 27 28 29 30 30 31 31 31 31 32 32 32 32 32 32 32 33 33 33 34 34 34 34 35 35 35 36 37 37 37 38 38 39 39 39 40 41 42 42 42 42 42 42 41 40 40 40 40 40 40 40 40 40 41 42 43 43 43 42 42 42 42
25 25 25 26 26 26 26 27 27 28 29 30 31 32 32 32 32 33 33 34 33 33 32 33 33 34 34 34 34 35 35 35 35 36 37 37 37 38 38 38 38 39 39 40 41 42 42 42 42 42 41 41 41 40 40 39 39 40 40 40 40 41 42 42 42 42 42 41 41
25 25 26 26 27 27 27 27 27 28 29 30 31 32 32 33 33 33 34 33 33 33 33 33 34 34 34 35 35 35 35 35 35 35 36 36 37 37 38 38 38 38 39 40 40 41 41 41 41 41 41 41 41 41 41 40 39 39 39 39 39 40 40 41 41 41 41 40 41
26 26 27 27 28 28 28 28 27 28 28 29 31 32 32 33 33 33 33 33 33 33 33 34 34 34 34 35 35 35 35 35 35 35 35 35 36 36 37 37 37 38 39 40 40 40 40 40 41 41 41 41 41 41 41 40 40 39 39 39 39 39 39 40 40 41 41 40 40
26 27 28 28 29 29 29 29 28 28 28 29 30 31 32 33 33 33 33 33 33 34 34 34 34 34 34 34 34 35 35 35 35 35 34 34 34 35 35 36 37 38 39 40 40 40 39 39 39 40 40 40 40 41 41 40 40 39 39 38 38 38 38 39 39 40 40 40 40
27 28 29 29 30 30 30 30 29 29 29 29 30 31 32 33 33 33 33 34 34 34 34 34 34 34 33 33 34 34 35 35 35 35 34 34 33 34 34 35 36 38 39 39 39 38 38 37 38 38 38 38 39 39 39 40 40 40 39 38 38 37 37 37 38 39 39 40 40
28 29 29 30 30 30 30 30 30 30 30 30 30 31 31 32 33 33 33 34 34 34 34 34 34 34 33 33 33 33 34 34 34 34 34 33 33 33 33 34 35 37 38 38 37 36 35 35 35 36 36 37 37 37 37 37 39 39 39 39 38 37 36 36 37 38 38 39 39
30 30 30 30 30 30 31 31 30 30 30 30 30 31 31 32 32 32 33 33 34 34 34 33 33 32 32 31 32 33 33 33 33 33 33 33 33 33 33 34 34 35 36 36 35 34 34 34 34 34 34 35 36 37 36 36 37 38 38 38 37 37 37 37 36 36 37 37 38
31 31 30 30 30 30 31 31 30 30 30 31 31 31 31 31 31 32 32 33 33 32 32 32 31 31 30 30 31 32 33 33 32 32 32 32 33 33 33 33 33 34 34 33 32 32 33 34 35 34 34 34 35 36 37 36 35 36 36 37 36 36 36 36 36 35 35 36 36
32 31 30 30 30 30 31 31 31 31 31 31 31 31 31 30 31 32 32 32 32 31 31 30 29 29 28 29 30 31 32 32 32 31 31 31 32 33 33 33 33 33 32 31 31 31 33 34 35 35 35 35 34 34 34 35 34 34 34 34 34 35 35 35 35 34 34 35 35
32 31 30 30 30 30 31 31 31 31 31 31 30 30 30 30 31 31 31 32 32 31 31 30 28 28 28 29 30 29 30 30 30 30 30 31 31 32 32 32 32 33 32 30 30 31 32 33 34 35 36 36 34 34 34 34 34 33 33 32 33 34 34 34 34 34 34 33 34
32 31 30 30 30 31 31 32 32 32 31 31 30 30 30 30 31 31 31 31 31 31 31 29 28 29 29 30 29 29 29 29 29 29 30 31 31 32 32 32 32 33 32 30 30 30 31 32 33 34 35 36 35 34 33 32 33 32 32 31 32 33 33 34 34 34 34 34 34
32 32 31 30 31 31 32 33 32 32 31 31 30 30 30 30 31 31 31 30 30 30 29 29 28 29 30 30 29 29 29 29 29 29 30 30 31 31 32 32 32 32 31 30 30 30 31 31 32 33 34 35 35 35 34 33 33 33 33 33 33 33 33 33 33 34 34 34 34
32 32 31 31 31 32 32 32 32 31 31 30 30 30 30 31 31 31 30 30 29 29 29 29 29 30 30 30 29 29 29 29 29 29 30 30 30 31 31 31 31 30 30 29 29 30 30 31 32 32 33 34 35 35 35 33 33 33 34 33 33 33 34 34 33 33 34 34 34
32 32 31 31 31 31 32 31 31 31 30 30 30 30 30 30 31 31 30 30 29 29 29 29 30 31 31 31 30 30 30 29 29 29 29 30 30 30 30 30 29 29 28 27 28 29 30 31 32 32 33 33 34 35 35 34 33 33 33 34 34 34 34 34 34 34 34 34 34
31 31 31 30 30 30 31 30 30 30 30 30 30 31 31 31 31 31 31 30 29 29 29 29 30 30 30 30 30 30 30 30 29 29 29 29 29 29 30 30 30 28 27 27 28 29 30 31 32 32 32 33 34 34 34 34 33 33 33 34 34 34 34 34 34 34 34 34 34
30 30 29 30 30 30 30 30 30 30 30 30 30 31 31 31 31 31 30 29 28 28 28 29 29 29 29 29 30 30 30 30 30 30 29 29 28 29 30 30 30 29 28 27 27 28 29 30 31 32 32 32 33 34 34 33 32 32 32 33 34 34 34 34 35 35 34 34 34
29 29 29 30 31 31 31 31 31 30 30 30 30 31 31 32 32 31 30 28 27 27 28 28 28 28 29 30 30 30 30 30 30 29 29 28 28 29 29 30 30 30 29 28 28 28 29 30 30 31 31 31 32 32 31 31 30 30 30 32 33 34 34 34 34 34 34 34 34
28 29 31 32 32 33 32 32 31 30 30 30 31 31 31 31 31 30 29 27 26 26 27 27 28 29 30 30 31 31 31 30 29 29 29 29 28 28 29 29 30 30 29 28 28 28 29 29 30 30 31 31 31 30 29 28 28 28 28 29 31 33 34 33 32 32 34 36 35
30 31 32 32 33 33 32 32 31 30 30 30 30 30 30 30 30 29 28 27 25 25 26 27 28 29 30 30 30 29 29 29 29 29 29 29 29 29 28 29 29 29 29 28 28 28 29 29 30 30 31 30 30 29 28 27 27 27 27 27 28 29 31 31 31 31 32 35 36
32 33 33 32 32 32 31 31 31 30 30 29 30 30 30 29 29 29 28 27 26 25 26 27 28 29 29 29 28 28 28 28 28 28 29 29 29 29 28 28 29 29 28 27 27 28 28 29 29 30 30 30 30 29 27 27 27 27 27 27 25 26 27 30 30 30 30 32 34
33 33 32 32 31 31 30 30 30 30 29 29 29 29 29 29 28 28 27 26 26 26 26 26 27 28 28 28 27 27 27 27 28 28 28 28 28 28 27 28 28 28 28 27 27 27 28 29 29 30 30 30 30 29 27 26 27 28 27 26 25 24 24 26 28 29 29 30 31
Wind_Direction
241 241 241 241 240 241 241 242 242 242 242 241 241 240 240 239 239 240 240 239 237 237 236 236 235 235 234 232 230 228 227 226 225 224 224 224 225 225 225 225 225 225 224 224 224 223 222 220 219 219 219 220 219 219 218 216 213 212 211 211 212 212 212 211 210 209 208 207 207
242 242 242 242 242 242 242 243 243 243 242 242 242 241 241 240 240 241 241 240 239 239 238 237 236 235 235 234 232 231 229 227 227 226 226 226 226 226 225 225 225 225 225 225 224 222 221 220 218 218 219 220 220 220 219 218 215 213 212 212 212 212 212 211 211 210 208 208 207
243 243 243 242 242 241 241 242 243 243 242 242 242 243 242 242 242 242 242 242 242 241 240 238 237 236 236 235 234 233 231 230 228 227 227 226 226 226 226 225 225 226 226 225 224 223 221 220 218 218 219 220 220 220 220 219 217 215 214 213 212 212 211 211 211 210 208 208 207
245 244 243 243 242 242 242 243 244 244 244 244 244 244 243 243 243 243 243 243 243 242 240 239 238 237 237 236 235 234 233 232 230 229 228 227 227 226 226 226 226 226 226 225 224 223 222 220 219 219 219 220 220 220 220 219 217 216 216 215 213 212 211 211 210 209 208 208 208
247 246 245 245 245 245 245 246 246 247 247 247 246 245 245 245 244 244 244 243 242 242 241 240 239 239 238 238 237 236 235 233 231 230 229 228 228 227 227 226 226 226 226 225 225 223 222 220 220 220 220 221 221 221 220 219 218 217 217 216 214 213 212 211 210 208 207 208 207
250 250 249 248 248 248 248 248 249 249 249 249 248 247 246 246 245 244 243 243 243 243 242 242 240 239 239 238 238 237 236 234 232 230 229 229 228 227 227 226 226 226 226 226 225 224 222 220 220 220 221 222 222 222 221 220 218 217 217 216 215 214 212 211 210 208 207 207 207
255 254 254 253 252 252 251 251 251 251 251 250 249 248 248 248 247 246 245 245 245 244 243 242 240 239 238 237 237 237 236 234 233 231 230 229 229 228 227 226 226 226 226 225 224 223 222 220 220 221 222 222 222 222 222 220 218 217 217 216 216 214 213 212 210 208 207 207 206
261 260 259 257 256 255 254 254 254 253 252 251 250 250 250 250 249 249 248 248 246 245 244 242 241 240 239 238 237 236 236 235 233 232 231 230 229 228 227 227 226 226 225 225 224 222 221 220 220 221 222 222 222 222 221 219 218 217 217 216 216 215 214 213 211 209 208 207 206
265 264 263 262 260 258 257 257 256 255 254 252 252 252 252 251 251 251 250 248 248 247 246 244 243 241 240 239 238 237 236 235 234 233 232 230 229 228 228 227 226 226 225 224 223 222 221 220 220 221 222 222 221 221 220 218 217 217 217 216 216 215 215 214 212 210 209 208 207
271 270 268 266 264 262 261 259 258 257 256 255 254 254 253 252 252 251 251 250 250 249 247 245 244 242 241 240 239 238 237 236 236 234 233 232 230 229 228 227 226 225 224 223 223 222 221 220 220 221 222 222 222 221 220 218 216 216 216 216 215 215 214 214 212 211 210 209 207
280 277 274 271 269 267 265 263 261 259 258 257 256 255 254 253 252 251 251 251 250 249 247 246 244 243 241 241 240 239 238 237 236 235 234 233 231 230 229 227 226 225 224 223 222 221 220 220 220 221 222 222 222 221 220 218 216 215 215 215 215 214 214 213 212 210 210 209 208
290 286 282 277 275 272 269 266 264 262 260 259 258 257 256 254 253 252 251 250 249 248 247 246 244 243 242 241 241 240 239 238 237 236 235 234 233 231 230 229 227 226 225 223 222 221 220 220 220 221 221 222 221 221 220 218 216 215 214 214 214 213 213 212 211 209 209 208 207
296 294 289 284 279 275 272 269 267 265 263 262 261 259 258 256 255 253 251 249 248 248 247 246 244 243 242 242 241 240 239 238 237 236 236 235 234 232 230 229 228 227 225 224 223 221 221 221 221 221 221 221 221 221 220 218 216 214 213 213 213 213 212 211 210 208 207 207 206
301 298 293 289 283 279 274 271 269 267 266 264 263 262 260 259 257 254 252 250 250 249 248 247 245 244 243 242 241 239 238 237 236 236 235 235 234 233 231 230 228 227 226 225 223 222 222 222 221 221 221 221 221 221 220 219 217 215 214 213 212 212 212 211 209 208 206 206 206
308 304 300 295 289 283 278 275 272 270 268 267 266 265 263 261 258 256 253 251 251 250 249 247 246 245 244 243 241 240 238 237 235 235 235 234 234 233 231 230 229 227 226 225 224 223 223 223 222 222 221 221 221 221 220 219 218 216 214 213 212 212 212 211 209 208 206 206 207
316 312 307 301 295 289 284 280 276 274 271 269 269 268 265 263 261 258 254 252 251 250 249 247 246 245 244 243 241 240 238 236 235 234 233 233 233 232 231 230 229 228 226 225 224 224 224 224 224 223 223 222 222 221 221 220 218 217 216 214 213 213 212 211 210 208 208 208 208
321 318 313 308 301 296 290 286 282 278 275 273 272 270 268 266 263 260 256 254 252 250 248 247 246 245 244 242 241 239 237 235 234 233 232 232 232 231 231 230 230 229 227 226 225 224 224 224 224 224 224 223 222 222 221 220 219 218 217 215 214 213 213 212 211 210 209 210 210
323 321 318 313 307 302 297 292 288 284 281 278 276 273 271 268 265 262 259 256 253 250 248 248 247 245 243 242 240 238 236 234 233 232 232 232 231 231 231 231 231 230 229 227 226 225 225 224 224 224 224 223 223 222 222 221 220 219 218 216 215 214 214 213 212 212 211 211 212
323 322 320 316 312 307 302 297 293 289 286 283 280 276 273 270 267 264 262 259 255 252 250 249 247 245 244 242 240 239 237 235 235 234 233 232 232 231 231 231 231 230 229 228 227 227 226 225 225 224 223 223 223 222 222 221 220 219 218 217 216 215 215 214 214 213 213 213 214
321 320 319 317 314 310 306 301 296 293 289 286 283 279 275 272 269 265 262 260 258 255 252 249 248 246 244 243 241 240 238 237 237 236 235 234 233 232 232 231 231 230 230 229 228 227 227 225 225 224 223 223 222 222 221 221 220 220 219 218 217 217 216 215 215 215 215 215 215
319 319 318 317 315 312 309 304 300 295 291 287 284 281 278 275 271 267 264 262 260 257 253 250 248 247 245 244 242 241 240 239 238 237 237 236 234 233 233 232 231 231 230 230 229 228 227 226 225 224 223 223 222 221 221 220 220 219 219 219 219 218 217 217 216 216 216 216 217
318 318 317 316 315 314 312 309 304 299 293 288 285 282 279 276 272 269 267 265 262 258 254 252 250 248 246 245 244 242 242 241 239 238 238 237 236 235 234 233 232 231 230 230 229 228 227 226 225 224 223 223 222 222 221 220 220 219 219 219 219 219 218 218 218 217 218 218 218
318 317 317 316 315 315 314 312 308 303 297 291 287 283 279 276 274 271 269 265 262 258 255 253 251 250 249 248 246 245 243 242 240 239 239 238 237 236 234 233 232 231 230 230 229 228 226 225 224 224 223 222 222 222 221 220 220 220 219 219 219 219 219 219 219 219 219 220 220
318 317 317 316 316 316 315 314 311 307 302 297 292 286 282 278 275 272 269 265 262 259 256 255 253 252 251 250 248 247 245 243 241 240 239 238 237 236 234 233 232 231 231 231 230 228 226 225 223 223 222 222 222 222 222 221 220 220 220 219 219 219 219 219 219 220 220 220 221
318 317 317 317 317 316 316 315 312 309 305 302 297 291 285 280 276 272 268 265 263 260 258 256 255 254 252 251 249 248 246 244 242 240 239 238 236 235 234 233 232 232 232 231 230 228 227 225 224 222 222 222 222 222 222 222 221 221 220 220 219 219 219 220 220 220 220 221 221
317 317 317 317 317 316 315 313 311 309 306 304 300 294 289 283 278 273 269 266 263 261 259 257 256 254 253 251 250 248 246 245 243 241 240 238 236 235 234 233 232 232 232 231 230 228 225 224 223 223 222 222 221 221 221 222 221 221 221 220 220 219 219 220 220 220 221 221 221
316 316 317 317 316 315 313 312 309 307 305 302 299 295 291 286 281 275 270 266 264 262 260 257 256 254 253 251 249 248 246 245 243 242 240 239 237 236 234 234 233 233 233 232 229 227 226 225 225 223 222 221 221 221 221 221 222 221 221 221 221 220 220 220 220 220 220 221 221
315 316 316 316 314 312 311 309 306 304 302 300 297 295 292 287 281 276 271 268 265 262 259 257 255 254 252 249 248 247 246 245 244 243 241 240 238 237 236 235 235 235 234 233 230 228 228 228 227 226 223 222 221 221 221 221 221 221 222 222 222 222 222 222 222 221 221 221 221
315 315 314 312 310 308 307 305 303 301 299 298 296 294 291 286 281 276 272 269 265 261 258 256 255 253 250 248 247 247 246 245 244 243 242 241 240 238 237 236 236 236 236 234 231 230 229 229 228 227 226 223 222 221 221 221 221 222 223 223 223 223 223 223 223 222 222 221 221
314 312 310 308 306 305 304 302 300 299 298 296 295 292 289 285 281 277 273 269 265 262 260 257 255 251 249 248 248 247 246 244 243 242 241 240 240 240 239 238 237 237 237 235 233 232 231 230 229 228 227 225 223 221 221 221 221 222 223 224 224 224 224 224 223 223 222 221 221
311 310 308 306 304 302 301 301 300 299 297 295 293 291 289 285 282 278 274 270 267 265 262 259 255 252 250 250 249 247 245 245 243 241 240 240 240 240 240 239 238 238 237 236 234 234 233 232 231 230 229 227 224 222 221 220 220 221 222 223 224 224 224 224 223 223 222 221 221
309 308 306 304 302 301 301 300 299 297 296 294 292 290 288 285 283 281 277 274 270 266 262 258 254 252 251 251 249 247 246 245 243 242 240 240 240 241 241 240 239 239 238 236 235 235 235 234 232 231 230 228 226 224 223 221 220 221 223 224 224 223 223 223 223 222 222 221 220
307 306 304 302 301 300 300 299 297 296 294 292 291 289 288 287 286 284 281 277 271 266 261 257 254 252 251 250 248 247 246 245 244 243 242 241 241 241 241 241 240 239 238 236 236 235 235 235 233 232 231 230 229 227 226 223 221 222 223 223 224 223 223 222 222 222 221 220 220
306 305 303 302 301 300 299 297 296 294 293 292 291 290 289 288 287 285 283 279 274 269 263 260 257 255 253 252 250 248 247 247 246 244 243 242 241 241 240 240 239 239 237 236 235 235 235 235 234 233 232 231 230 230 228 226 223 222 222 223 224 223 222 222 222 222 221 221 220
304 303 301 301 300 299 298 297 295 294 293 292 291 291 290 289 288 286 284 282 278 272 267 263 260 258 256 255 253 251 249 249 248 246 244 242 241 240 240 239 239 238 237 236 236 236 236 236 235 234 233 231 231 231 230 229 226 223 222 222 223 223 222 222 221 222 221 221 220
301 300 300 300 300 299 298 297 296 295 294 292 291 291 291 290 289 288 286 284 280 274 268 264 261 258 256 254 253 251 250 249 248 247 245 243 241 240 239 239 239 238 236 236 236 236 236 236 236 235 233 232 231 231 232 230 229 226 223 221 222 222 221 221 221 221 221 221 221
299 300 301 301 301 301 300 299 298 296 294 293 292 291 291 290 290 289 288 285 280 275 270 266 262 258 256 254 253 252 252 250 249 247 245 243 240 239 239 240 240 239 237 236 236 236 237 237 236 235 233 232 231 231 231 231 230 228 225 222 221 221 221 220 221 221 221 220 220
299 301 302 302 302 302 301 300 298 296 295 293 292 292 291 290 289 289 287 284 279 275 271 268 263 260 258 257 256 255 253 251 249 247 245 243 241 239 240 241 242 241 239 236 236 236 236 237 236 234 232 231 231 230 230 230 230 229 227 224 222 221 221 220 220 220 220 220 220
300 302 303 302 302 301 300 299 298 296 295 294 293 293 292 291 290 289 287 284 280 275 272 269 266 264 262 260 258 256 254 252 249 247 245 244 243 242 241 242 243 242 240 237 236 235 236 236 236 234 232 231 230 229 229 229 229 230 229 226 224 222 220 219 218 219 219 220 220
301 302 302 301 300 300 299 298 298 297 296 296 295 295 294 294 292 290 288 285 281 277 274 271 269 267 265 263 259 256 255 253 250 247 245 245 245 244 243 243 244 244 242 239 237 236 235 235 235 234 233 231 231 229 229 229 230 231 231 229 225 221 219 218 217 218 219 219 220
301 301 301 300 299 299 298 298 298 298 298 298 298 297 297 297 295 293 291 287 284 280 277 274 272 270 267 264 260 257 255 253 251 249 247 246 245 244 243 243 244 244 243 240 238 236 235 235 235 234 233 232 231 230 229 229 230 231 231 230 227 222 218 216 217 217 218 218 218
Height
766 765 764 764 763 763 762 762 761 761 761 760 760 760 760 760 759 759 759 759 758 758 758 758 758 758 758 759 759 760 761 762 762 763 763 764 764 765 765 766 767 767 768 769 770 770 771 771 772 772 773 773 773 773 773 772 772 773 773 774 774 775 775 776 777 777 777 778 778
763 763 762 762 761 761 760 759 758 758 757 757 757 757 757 757 757 756 756 756 756 756 756 756 756 757 757 757 757 758 758 759 760 760 761 761 762 762 763 764 764 765 766 767 767 768 768 769 769 770 771 771 772 772 772 771 771 771 771 771 772 772 773 774 774 775 776 776 777
761 761 760 760 759 758 757 756 756 755 755 755 754 755 755 754 754 754 754 754 754 754 755 755 755 755 755 755 755 755 756 756 757 757 758 758 759 760 760 761 762 762 763 764 765 765 766 767 767 767 768 768 769 769 770 770 771 771 770 769 770 771 772 772 772 773 774 775 775
759 759 758 757 757 756 755 754 753 753 753 753 753 753 752 752 752 752 752 752 753 753 753 753 753 753 753 753 753 753 753 754 754 755 755 756 756 757 757 758 759 760 760 761 762 763 763 764 765 765 765 765 766 767 767 768 769 769 769 768 769 769 769 770 771 772 772 773 773
757 757 756 755 755 754 753 753 752 752 752 752 752 752 751 751 750 751 751 751 751 751 751 751 751 751 751 751 751 751 751 751 752 752 753 753 753 754 755 756 757 757 758 759 759 760 761 762 763 763 763 763 763 764 765 766 767 768 768 768 768 767 767 768 769 770 770 771 772
755 754 754 754 753 753 752 752 752 751 751 751 751 750 749 749 749 749 749 749 749 749 749 750 750 749 749 749 749 749 749 749 749 750 750 750 751 752 753 753 754 755 756 757 757 758 759 760 760 760 760 761 761 761 762 764 765 766 766 766 766 766 766 767 767 768 768 769 770
754 753 753 752 752 752 751 751 751 751 750 750 749 748 747 747 747 747 747 747 747 748 748 748 748 747 747 747 747 747 747 747 747 747 747 748 748 749 750 751 752 752 753 754 755 756 757 757 758 758 758 758 759 759 760 762 763 763 764 764 764 764 765 765 765 766 767 767 767
753 752 752 752 751 751 750 750 750 749 749 748 747 747 746 746 746 746 746 746 746 746 746 746 746 746 746 746 745 745 744 744 744 744 745 745 746 747 747 748 749 750 750 751 752 753 754 755 755 755 755 756 756 756 757 759 760 761 761 762 762 763 763 763 764 764 765 765 766
752 751 751 750 750 749 749 748 748 748 747 746 746 745 745 745 745 744 744 744 744 744 744 744 744 744 744 743 743 743 742 742 742 742 742 742 743 744 744 745 746 747 747 748 749 750 751 752 752 752 752 752 753 753 754 756 757 758 758 759 760 761 762 762 762 763 763 764 764
751 750 749 749 748 748 747 747 747 746 745 744 744 743 743 743 743 742 742 742 742 742 742 741 742 742 742 741 741 741 740 740 740 740 740 740 740 741 741 742 742 743 744 745 746 747 748 749 749 749 749 749 750 751 751 752 753 754 755 757 758 759 759 760 761 762 762 762 763
750 749 748 748 747 747 746 746 745 744 744 743 742 742 741 741 740 740 739 739 739 739 738 738 738 739 739 738 738 738 738 738 738 737 737 737 737 737 738 738 739 740 741 742 743 744 745 745 745 746 746 747 748 748 749 749 750 751 752 753 755 756 757 757 758 759 760 761 761
749 748 747 747 746 746 745 744 743 742 742 741 740 740 739 738 738 737 737 737 736 735 735 735 735 735 735 735 735 735 736 736 736 735 735 735 735 735 735 736 736 737 738 739 741 741 742 742 742 742 743 744 745 746 746 747 747 748 749 750 752 752 753 754 755 756 757 759 760
747 747 746 745 745 744 743 742 742 741 740 739 738 738 737 737 736 736 736 735 734 733 732 732 732 732 732 731 731 732 732 732 733 733 732 732 732 732 733 733 733 734 736 737 737 738 738 738 739 740 741 742 742 743 743 744 744 745 746 747 748 749 750 751 752 754 755 757 757
746 745 745 744 743 742 742 740 739 739 738 737 736 736 735 735 734 734 734 733 732 731 731 730 730 729 728 728 728 728 728 729 729 730 730 730 730 730 730 730 731 732 733 734 735 735 735 735 736 737 738 739 740 740 741 741 742 742 743 744 745 746 747 749 750 752 753 754 755
745 744 743 742 741 741 740 739 738 737 736 735 734 733 733 732 732 732 731 731 730 729 729 729 728 727 726 726 725 725 725 725 726 726 726 727 727 727 727 727 728 729 730 731 732 732 732 732 733 734 735 736 737 737 738 739 739 739 740 741 742 743 745 747 748 749 750 751 752
743 742 742 741 740 739 738 737 736 735 734 733 732 731 731 730 730 729 729 728 727 727 727 726 725 725 724 724 723 723 723 722 722 722 722 723 723 724 724 725 725 726 726 727 728 729 729 729 730 731 732 733 734 735 736 736 737 737 738 738 740 741 742 744 745 746 747 747 748
742 742 741 740 739 738 737 736 735 733 732 731 730 729 729 728 727 727 726 725 724 724 723 723 722 722 722 721 721 721 720 720 719 719 719 719 719 720 721 722 722 722 723 724 724 725 726 727 727 728 729 730 731 732 732 733 734 734 735 736 737 738 739 740 741 742 742 743 744
742 741 740 739 738 737 736 735 733 732 731 730 729 728 727 726 725 724 723 722 722 721 721 720 720 719 719 718 718 718 717 717 716 715 715 715 715 716 717 717 718 719 720 720 721 721 722 723 724 725 726 727 728 729 729 730 731 731 732 733 733 734 735 736 737 737 738 739 740
741 740 739 738 737 736 735 734 732 731 730 728 727 726 725 724 723 722 721 720 719 719 718 717 717 717 716 716 715 715 715 714 713 712 712 712 712 712 713 714 715 716 716 717 717 717 719 720 721 722 723 724 725 725 726 727 727 728 729 729 730 731 731 732 733 733 734 736 737
740 739 738 737 736 735 733 732 731 730 728 727 726 724 723 722 721 720 719 717 717 717 716 715 715 714 714 713 713 712 712 711 711 710 710 710 710 710 710 711 712 712 713 713 713 714 715 717 717 719 720 720 721 722 723 723 724 725 725 726 727 727 728 729 730 731 732 733 734
739 737 736 735 734 733 732 730 729 728 727 725 724 722 721 720 719 718 717 716 715 715 714 713 712 712 711 711 710 710 709 709 708 708 707 707 707 707 707 708 709 709 710 710 710 711 712 713 714 715 716 717 718 719 719 720 721 722 723 723 724 725 726 727 728 729 730 731 732
737 736 735 733 732 731 730 728 727 726 724 723 722 720 719 717 717 715 714 714 713 713 712 711 710 709 709 708 708 707 707 707 706 706 705 705 705 705 705 706 706 707 707 707 707 708 709 710 711 712 713 714 715 715 716 717 718 719 720 721 722 723 724 725 726 727 727 728 729
736 735 733 732 730 729 727 726 725 724 722 721 719 718 717 715 714 713 712 712 711 710 709 708 707 707 707 706 705 705 704 704 704 703 703 702 702 702 703 703 703 703 703 703 704 705 706 707 708 709 710 711 712 712 713 714 715 716 717 718 719 720 721 722 723 724 725 726 727
734 733 732 730 728 727 726 724 723 721 720 718 717 716 714 713 712 710 710 709 708 707 707 706 706 705 705 704 704 703 702 702 701 701 700 700 700 700 700 701 700 700 700 700 701 702 703 704 705 706 707 708 708 709 710 711 712 713 714 715 716 717 718 719 720 721 722 723 724
733 731 730 728 727 725 723 722 721 719 717 716 715 713 712 710 709 708 707 706 705 704 703 703 703 703 703 702 702 701 700 699 698 698 698 698 698 698 698 698 697 697 697 697 698 699 700 701 702 703 704 705 706 707 708 708 709 710 711 712 713 714 715 716 717 717 718 719 720
731 729 728 727 725 723 722 720 718 717 715 714 712 711 709 708 707 705 704 703 702 701 701 701 700 701 701 700 700 699 698 697 697 696 696 696 696 696 695 695 694 694 693 694 695 697 698 699 700 701 702 702 703 704 705 706 706 707 708 709 710 711 712 712 713 714 715 716 717
729 727 726 724 723 721 719 718 716 715 713 712 710 708 707 706 704 703 702 700 699 698 698 698 697 697 698 698 697 697 696 695 695 694 694 694 693 693 693 692 692 691 691 692 693 695 697 698 699 699 700 700 701 701 702 702 703 704 706 706 707 708 708 709 709 711 712 713 714
727 725 724 722 721 719 717 716 714 712 711 709 708 706 705 703 702 701 699 698 697 696 696 695 695 695 695 695 694 693 693 693 693 692 692 692 691 691 691 690 690 689 689 690 692 693 694 695 696 697 698 698 698 698 699 700 701 702 703 704 704 705 705 706 707 708 709 710 711
724 723 722 720 718 717 715 714 712 711 709 707 706 704 702 701 700 698 697 696 695 694 693 693 692 692 692 691 691 690 690 690 690 690 690 690 689 688 688 688 688 688 688 689 690 691 692 693 694 694 695 696 696 696 697 697 698 699 700 701 701 702 702 703 704 705 706 707 708
722 721 720 718 716 715 713 712 710 708 707 705 703 702 701 699 697 696 695 694 693 692 691 691 690 690 689 688 687 688 687 687 687 687 687 687 687 686 686 686 686 686 687 688 689 689 690 691 691 692 692 693 693 693 693 694 695 697 697 698 698 699 700 700 702 702 703 704 706
720 719 717 716 714 712 711 709 707 706 704 703 701 700 698 697 695 694 693 692 691 690 689 689 688 687 686 685 685 685 685 685 685 685 684 684 684 684 684 684 684 684 685 686 687 688 688 689 689 690 690 691 691 691 691 691 692 693 694 694 695 696 697 698 698 699 700 701 702
717 716 715 713 712 710 708 707 705 703 702 700 699 697 696 694 693 692 691 690 689 688 688 687 686 685 684 683 683 683 682 682 682 682 681 681 681 681 681 681 681 682 682 684 685 686 686 687 687 687 688 689 689 689 688 688 689 690 691 691 692 692 693 694 695 696 697 698 699
715 714 712 711 709 707 706 704 702 701 700 698 697 695 693 692 691 689 689 688 687 687 686 685 684 683 682 681 681 680 680 679 679 679 679 678 678 678 678 679 679 679 680 682 682 683 683 684 684 685 686 686 687 687 686 686 686 687 687 688 688 689 690 691 692 693 694 695 697
713 711 710 708 707 705 703 702 700 699 697 696 694 693 692 690 689 687 686 686 685 684 683 682 681 681 680 679 679 678 677 677 677 676 676 676 676 676 676 676 676 677 678 679 680 680 681 682 682 682 683 684 684 684 684 683 683 683 684 684 685 686 687 688 689 690 691 692 694
711 709 707 706 704 703 701 700 698 697 695 694 692 691 689 688 687 686 684 683 683 682 681 680 679 678 677 677 676 676 675 674 674 674 674 674 674 674 673 673 673 674 676 677 677 678 678 679 679 680 681 681 682 682 682 681 681 681 681 681 682 683 684 685 686 687 688 690 691
709 707 706 704 702 701 699 698 696 695 693 692 690 689 687 686 685 683 682 682 681 679 678 677 677 676 675 675 674 673 672 672 672 671 671 672 672 671 671 670 670 671 672 674 675 675 676 676 677 677 678 679 679 679 679 679 678 678 678 678 679 680 681 682 683 684 686 687 688
707 706 704 702 700 699 697 696 694 693 691 689 688 687 685 684 682 681 680 680 678 677 676 675 674 674 673 672 671 670 670 670 669 669 669 669 669 669 668 668 668 668 669 671 672 672 673 674 674 675 676 676 676 676 676 676 676 675 675 675 676 676 677 679 680 681 682 683 684
706 704 702 701 699 697 695 694 692 691 689 687 686 684 683 682 680 679 678 677 676 675 673 672 672 671 670 669 668 667 667 667 667 667 667 666 666 666 666 666 665 666 667 668 669 670 670 671 672 672 673 673 673 673 673 673 673 673 673 673 673 673 674 676 677 678 679 680 681
704 702 701 699 697 695 693 692 690 688 687 685 684 682 681 680 678 677 676 675 674 672 671 670 669 668 667 667 666 665 665 665 665 664 664 664 664 664 664 664 663 663 664 666 666 667 667 668 669 669 670 670 671 671 671 671 670 670 670 670 670 671 672 673 674 675 675 676 677
702 700 698 697 695 693 691 689 688 687 685 684 682 680 679 678 676 675 674 673 672 670 669 667 666 665 665 664 664 663 662 662 662 662 662 662 662 662 662 662 662 662 662 663 664 664 665 665 666 667 667 668 668 668 668 668 668 668 668 668 668 668 669 670 671 672 672 673 674
699 697 696 694 692 691 689 687 686 684 683 682 680 679 677 676 674 673 672 671 669 668 667 666 664 663 662 662 662 661 660 659 659 659 659 659 659 660 660 660 659 659 660 661 662 662 662 663 663 664 665 665 665 666 666 666 666 665 665 665 666 666 667 667 668 669 670 670 671